SAS521 EFHK-ENGM

Flight info

Callsign SAS521
Flight time N/A
Altitude 38000
Route ADIVO5C ADIVO Y365 POGOK DCT EBURI N623 ESEBA ESEBA4L
Aircraft A20N/M-SDE2E3FGHIRWXY/LB1

Departure

Time 2026-04-23 18:04
Airport Helsinki Vantaa Airport (EFHK)

Arrival

Time N/A
Airport Oslo-Gardermoen International Airport (ENGM)
Time Latitude Longitude Altitude Speed Heading
2026-04-23 17:44 60.31460 24.95621 164 ft 0 kts 135°
2026-04-23 17:51 60.31461 24.95618 164 ft 3 kts 135°
2026-04-23 17:51 60.31475 24.95591 164 ft 3 kts 135°
2026-04-23 17:51 60.31502 24.95539 163 ft 3 kts 128°
2026-04-23 17:52 60.31515 24.95515 163 ft 3 kts 144°
2026-04-23 17:52 60.31521 24.95506 163 ft 0 kts 144°
2026-04-23 17:56 60.31519 24.95506 163 ft 1 kts 166°
2026-04-23 17:56 60.31481 24.95422 162 ft 11 kts 229°
2026-04-23 17:56 60.31412 24.95259 161 ft 19 kts 229°
2026-04-23 17:57 60.31394 24.95086 160 ft 13 kts 311°
2026-04-23 17:57 60.31442 24.94900 158 ft 18 kts 253°
2026-04-23 17:57 60.31250 24.94463 156 ft 27 kts 227°
2026-04-23 17:58 60.31120 24.94174 154 ft 29 kts 228°
2026-04-23 17:58 60.31032 24.93937 152 ft 18 kts 263°
2026-04-23 17:58 60.31044 24.93836 152 ft 0 kts 301°
2026-04-23 17:58 60.31048 24.93823 152 ft 1 kts 301°
2026-04-23 18:01 60.31057 24.93802 152 ft 6 kts 312°
2026-04-23 18:01 60.31114 24.93700 149 ft 16 kts 322°
2026-04-23 18:02 60.31172 24.93723 150 ft 13 kts 60°
2026-04-23 18:02 60.31189 24.93764 151 ft 0 kts 47°
2026-04-23 18:04 60.31255 24.93907 152 ft 47 kts 47°
2026-04-23 18:04 60.31658 24.94792 159 ft 124 kts 47°
2026-04-23 18:04 60.32368 24.96351 487 ft 160 kts 46°
2026-04-23 18:04 60.33109 24.98100 1311 ft 167 kts 47°
2026-04-23 18:05 60.33834 24.99963 2166 ft 172 kts 47°
2026-04-23 18:05 60.34679 25.01836 2627 ft 190 kts 41°
2026-04-23 18:05 60.35650 25.03823 3215 ft 204 kts 42°
2026-04-23 18:05 60.36640 25.05903 4068 ft 206 kts 43°
2026-04-23 18:06 60.37622 25.08015 4832 ft 215 kts 43°
2026-04-23 18:06 60.38688 25.10281 5498 ft 227 kts 40°
2026-04-23 18:06 60.39984 25.12114 6301 ft 230 kts 22°
2026-04-23 18:06 60.41534 25.12856 7168 ft 229 kts
2026-04-23 18:07 60.43125 25.12958 8167 ft 226 kts 356°
2026-04-23 18:07 60.44676 25.12407 9105 ft 230 kts 342°
2026-04-23 18:07 60.46077 25.10787 10005 ft 237 kts 321°
2026-04-23 18:07 60.47029 25.07974 10824 ft 252 kts 296°
2026-04-23 18:08 60.47251 25.05611 11340 ft 264 kts 281°
2026-04-23 18:08 60.47058 25.00531 12497 ft 278 kts 269°
2026-04-23 18:08 60.46616 24.96661 13326 ft 286 kts 265°
2026-04-23 18:08 60.46068 24.92738 14081 ft 292 kts 264°
2026-04-23 18:09 60.45501 24.88803 14797 ft 296 kts 264°
2026-04-23 18:09 60.44939 24.84771 15519 ft 299 kts 265°
2026-04-23 18:09 60.44399 24.80661 16109 ft 307 kts 266°
2026-04-23 18:09 60.43871 24.76343 16432 ft 325 kts 267°
2026-04-23 18:10 60.43334 24.71763 16753 ft 342 kts 267°
2026-04-23 18:10 60.42777 24.66970 17161 ft 356 kts 266°
2026-04-23 18:10 60.42195 24.62048 17801 ft 363 kts 266°
2026-04-23 18:10 60.41594 24.57049 18448 ft 368 kts 266°
2026-04-23 18:11 60.40981 24.51990 19073 ft 372 kts 267°
2026-04-23 18:11 60.40360 24.46888 19703 ft 376 kts 267°
2026-04-23 18:11 60.39732 24.41731 20340 ft 379 kts 267°
2026-04-23 18:11 60.39097 24.36523 20982 ft 383 kts 267°
2026-04-23 18:12 60.38457 24.31272 21597 ft 387 kts 267°
2026-04-23 18:12 60.37817 24.26033 22211 ft 390 kts 268°
2026-04-23 18:12 60.37161 24.20684 22741 ft 394 kts 267°
2026-04-23 18:12 60.36498 24.15285 23290 ft 398 kts 267°
2026-04-23 18:13 60.35826 24.09833 23772 ft 402 kts 268°
2026-04-23 18:13 60.35144 24.04332 24256 ft 405 kts 268°
2026-04-23 18:13 60.34453 23.98789 24699 ft 408 kts 268°
2026-04-23 18:13 60.33755 23.93222 25165 ft 411 kts 268°
2026-04-23 18:14 60.33050 23.87604 25610 ft 414 kts 268°
2026-04-23 18:14 60.32340 23.81961 26047 ft 417 kts 268°
2026-04-23 18:14 60.31623 23.76279 26477 ft 419 kts 268°
2026-04-23 18:14 60.30897 23.70557 26897 ft 422 kts 268°
2026-04-23 18:15 60.30164 23.64799 27309 ft 425 kts 268°
2026-04-23 18:15 60.29424 23.59006 27704 ft 428 kts 268°
2026-04-23 18:15 60.28677 23.53183 28092 ft 430 kts 268°
2026-04-23 18:15 60.27922 23.47320 28504 ft 433 kts 268°
2026-04-23 18:16 60.27160 23.41425 28875 ft 436 kts 268°
2026-04-23 18:16 60.26391 23.35525 29441 ft 431 kts 268°
2026-04-23 18:16 60.25633 23.29824 30294 ft 421 kts 268°
2026-04-23 18:17 60.24133 23.18475 31132 ft 419 kts 268°
2026-04-23 18:17 60.23389 23.12795 31477 ft 419 kts 268°
2026-04-23 18:17 60.22644 23.07118 31851 ft 419 kts 268°
2026-04-23 18:17 60.21896 23.01464 32260 ft 416 kts 268°
2026-04-23 18:18 60.21147 22.95863 32774 ft 411 kts 268°
2026-04-23 18:18 60.20404 22.90346 33307 ft 406 kts 268°
2026-04-23 18:18 60.19667 22.84853 33536 ft 409 kts 268°
2026-04-23 18:18 60.18927 22.79300 33654 ft 413 kts 268°
2026-04-23 18:19 60.18188 22.73760 33783 ft 418 kts 267°
2026-04-23 18:19 60.17427 22.68086 33906 ft 423 kts 267°
2026-04-23 18:19 60.16652 22.62355 34015 ft 427 kts 267°
2026-04-23 18:19 60.15861 22.56543 34113 ft 432 kts 266°
2026-04-23 18:20 60.14249 22.44806 34185 ft 442 kts 265°
2026-04-23 18:20 60.13423 22.38841 34022 ft 443 kts 265°
2026-04-23 18:20 60.12592 22.32895 34167 ft 442 kts 265°
2026-04-23 18:21 60.11760 22.26975 34517 ft 439 kts 265°
2026-04-23 18:21 60.10933 22.21104 34873 ft 436 kts 265°
2026-04-23 18:21 60.10111 22.15275 35234 ft 433 kts 265°
2026-04-23 18:21 60.09567 22.11427 35480 ft 431 kts 265°
2026-04-23 18:22 60.08754 22.05682 35844 ft 427 kts 265°
2026-04-23 18:22 60.07686 21.98156 36317 ft 421 kts 265°
2026-04-23 18:22 60.06887 21.92542 36644 ft 417 kts 264°
2026-04-23 18:22 60.06350 21.88776 36871 ft 415 kts 264°
2026-04-23 18:23 60.05569 21.83314 37182 ft 411 kts 264°
2026-04-23 18:23 60.03992 21.72286 37418 ft 414 kts 264°
2026-04-23 18:24 60.02410 21.61154 37524 ft 415 kts 267°
2026-04-23 18:24 60.01920 21.55527 37579 ft 407 kts 275°
2026-04-23 18:25 60.01566 21.38551 37776 ft 408 kts 279°
2026-04-23 18:25 60.01527 21.27125 37902 ft 414 kts 279°
2026-04-23 18:26 60.01470 21.15536 37950 ft 420 kts 278°
2026-04-23 18:26 60.01374 21.03869 37942 ft 419 kts 278°
2026-04-23 18:27 60.01256 20.92310 37946 ft 418 kts 278°
2026-04-23 18:27 60.01130 20.80712 37952 ft 416 kts 278°
2026-04-23 18:28 60.00998 20.69144 37952 ft 416 kts 278°
2026-04-23 18:28 60.00857 20.57568 37952 ft 416 kts 278°
2026-04-23 18:29 60.00705 20.45990 37950 ft 417 kts 278°
2026-04-23 18:29 60.00543 20.34401 37948 ft 417 kts 278°
2026-04-23 18:30 60.00370 20.22825 37923 ft 416 kts 277°
2026-04-23 18:30 60.00188 20.11342 37944 ft 416 kts 277°
2026-04-23 18:31 59.99996 19.99805 37942 ft 415 kts 277°
2026-04-23 18:31 59.99794 19.88266 37940 ft 416 kts 277°
2026-04-23 18:32 59.99582 19.76714 37943 ft 416 kts 277°
2026-04-23 18:32 59.99359 19.65166 37968 ft 416 kts 277°
2026-04-23 18:33 59.99127 19.53621 37971 ft 416 kts 277°
2026-04-23 18:33 59.98884 19.42058 37971 ft 416 kts 277°
2026-04-23 18:34 59.98630 19.30500 37976 ft 416 kts 277°
2026-04-23 18:34 59.98369 19.19020 37976 ft 416 kts 277°
2026-04-23 18:35 59.98095 19.07470 37980 ft 416 kts 277°
2026-04-23 18:35 59.97812 18.95910 37979 ft 417 kts 276°
2026-04-23 18:36 59.97518 18.84349 37928 ft 417 kts 276°
2026-04-23 18:36 59.97214 18.72790 37979 ft 417 kts 276°
2026-04-23 18:37 59.96900 18.61227 37982 ft 417 kts 276°
2026-04-23 18:37 59.96576 18.49655 37979 ft 417 kts 276°
2026-04-23 18:38 59.96241 18.38097 37979 ft 417 kts 276°
2026-04-23 18:38 59.95896 18.26526 37977 ft 417 kts 276°
2026-04-23 18:39 59.95541 18.14959 37974 ft 417 kts 276°
2026-04-23 18:39 59.95176 18.03385 37975 ft 418 kts 275°
2026-04-23 18:40 59.94800 17.91793 37971 ft 419 kts 275°
2026-04-23 18:40 59.94413 17.80192 37966 ft 419 kts 275°
2026-04-23 18:41 59.94017 17.68643 37965 ft 419 kts 275°
2026-04-23 18:41 59.93610 17.57037 37966 ft 419 kts 275°